User: anonymous   Login
Location: Newark
(34.9500°N, 139.9667°E)
Time: 21:54:29
(UTC+00:00)
Language:

A-11 Canister half - Orbit

View from above orbital plane
View from above orbital plane
View from above satellite
View from above satellite

Ground track
Ground track

The orbit data is extracted from the following two-line orbital elements,

1    51U 60009C   19339.41107064 -.00000088  00000-0 -40633-4 0  9997
2    51  47.2117 230.8293 0106553 304.7264  54.3526 12.18274308640307
Epoch (UTC): 05 December 2019 09:51:56
Eccentricity: 0.0106553
inclination: 47.2117°
perigee height: 1515 km
apogee height: 1685 km
right ascension of ascending node: 230.8293°
argument of perigee: 304.7264°
revolutions per day: 12.18274308
mean anomaly at epoch: 54.3526°
orbit number at epoch: 64030

The dashed part of the orbit path shows where the satellite is in the earth's shadow,  

DLR